{"data":{"norad_id":65374,"intl_designator":"2025-190Z","name":"STARLINK-34900","alt_names":[],"object_type":"PAYLOAD","status":"ACTIVE","operator":null,"country":"US","launch_date":"2025-08-28","launch_site_code":"AFETR","launch_vehicle":null,"mission":null,"orbit_class":"UNKNOWN","rcs_meters":null,"size_class":null,"mass_kg":null,"dimensions":null,"purposes":["comms"],"wikipedia_slug":null,"has_3d_model":false,"image_url":null,"decayed_at":null,"tle_current":{"epoch":"2026-09-20T21:53:25.579104Z","epoch_age_seconds":79291,"freshness":"FRESH","line1":"1 65374U 25190Z   26263.91210161  .00012648  00000+0  38479-3 0  9996","line2":"2 65374  53.1592 340.0392 0001323  86.7719 273.3435 15.34402640 59145","mean_motion":15.3440264,"eccentricity":0.0001323,"inclination_deg":53.1592,"raan_deg":340.0392,"arg_perigee_deg":86.7719,"mean_anomaly_deg":273.3435,"bstar":0.00038479,"rev_number":5914,"period_min":93.847596612581,"perigee_km":461.79035145633,"apogee_km":463.60043570767,"semimajor_km":6840.832393582,"source":"CELESTRAK","updated_at":"2026-09-21T09:00:35.579939Z"}}}